Weather History for KBKL - April, 2013

Change the Weather History Date:

Saturday, April 13, 2013

  Actual Average Record
Temperature  
Mean Temperature 42 °F -  
Max Temperature 45 °F 55 °F 81 °F (2015)
Min Temperature 37 °F 40 °F 33 °F (2003)
Degree Days  
Heating Degree Days 24    
Moisture  
Dew Point 34 °F    
Average Humidity 74    
Maximum Humidity 83    
Minimum Humidity 65    
Precipitation  
Precipitation 0.04 in - - ()
Sea Level Pressure  
Sea Level Pressure 29.90 in    
Wind  
Wind Speed 15 mph (WSW)    
Max Wind Speed 24 mph    
Max Gust Speed 33 mph    
Visibility 10 miles    
Events Rain    
Averages and records for this station are not official NWS values.
T = Trace of Precipitation, MM = Missing Value Source: NWS Daily Summary

Daily Weather History Graph

Daily Weather History Graph

Search for Another Location

Airport or City:

Trip Planner

Search our weather history database for the weather conditions in past years. The results will help you decide how hot, cold, wet, or windy it might be!

Date:

Astronomy

Apr. 13, 2013 Rise Set
Actual Time 6:49 AM EDT 8:05 PM EDT
Civil Twilight 6:21 AM EDT 8:34 PM EDT
Nautical Twilight 5:46 AM EDT 9:08 PM EDT
Astronomical Twilight 5:10 AM EDT 9:44 PM EDT
Moon 8:38 AM EDT (4/13) 11:30 PM EDT (4/13)
Length of Visible Light 14h 12m
Length of Day
13h 15m
Waxing Crescent, 10% of the Moon is Illuminated
Apr 13
Waxing Crescent
Apr 18
First Quarter
Apr 25
Full
May 2
Last Quarter
May 9
New

Hourly Weather History & Observations

Time (EDT) Temp. Windchill Dew Point Humidity Pressure Visibility Wind Dir Wind Speed Gust Speed Precip Events Conditions
12:53 AM 42.1 °F 34.9 °F 33.1 °F 70% 29.84 in 10.0 mi SW 13.8 mph - N/A   Overcast
1:07 AM 42.8 °F 35.8 °F 33.8 °F 70% 29.84 in 10.0 mi SW 13.8 mph - N/A   Overcast
1:49 AM 42.8 °F 36.2 °F 33.8 °F 70% 29.84 in 10.0 mi SW 12.7 mph 23.0 mph N/A   Overcast
1:53 AM 42.1 °F 34.2 °F 34.0 °F 73% 29.85 in 10.0 mi SW 16.1 mph 23.0 mph N/A   Overcast
2:53 AM 42.1 °F 35.2 °F 34.0 °F 73% 29.84 in 10.0 mi SW 12.7 mph - N/A   Overcast
3:53 AM 42.1 °F 34.2 °F 34.0 °F 73% 29.85 in 10.0 mi SW 16.1 mph 23.0 mph N/A   Overcast
4:22 AM 42.8 °F 34.3 °F 33.8 °F 70% 29.84 in 10.0 mi WSW 19.6 mph 24.2 mph N/A   Overcast
4:46 AM 41.0 °F 32.8 °F 33.8 °F 76% 29.84 in 10.0 mi WSW 16.1 mph - N/A   Overcast
4:53 AM 39.9 °F 31.1 °F 33.1 °F 77% 29.86 in 10.0 mi WSW 17.3 mph - N/A   Overcast
5:53 AM 39.9 °F 31.4 °F 30.0 °F 68% 29.86 in 10.0 mi WSW 16.1 mph 29.9 mph N/A   Overcast
6:53 AM 39.9 °F 30.0 °F 30.0 °F 68% 29.86 in 10.0 mi West 21.9 mph 29.9 mph N/A   Overcast
7:53 AM 39.9 °F 32.1 °F 28.9 °F 65% 29.87 in 10.0 mi WSW 13.8 mph - N/A   Overcast
8:53 AM 41.0 °F 33.5 °F 30.0 °F 65% 29.88 in 10.0 mi SW 13.8 mph - N/A   Overcast
9:53 AM 42.1 °F 35.2 °F 32.0 °F 67% 29.88 in 10.0 mi SW 12.7 mph 20.7 mph N/A   Overcast
10:21 AM 42.8 °F 36.6 °F 33.8 °F 70% 29.87 in 10.0 mi SW 11.5 mph 20.7 mph N/A   Overcast
10:53 AM 43.0 °F 35.4 °F 34.0 °F 71% 29.88 in 10.0 mi SW 16.1 mph - N/A   Overcast
11:01 AM 42.8 °F 35.1 °F 33.8 °F 70% 29.88 in 10.0 mi WSW 16.1 mph 23.0 mph N/A   Overcast
11:30 AM 42.8 °F 36.2 °F 35.6 °F 76% 29.88 in 10.0 mi SW 12.7 mph - N/A   Overcast
11:51 AM 44.6 °F 38.4 °F 35.6 °F 71% 29.88 in 10.0 mi SSW 12.7 mph - N/A   Overcast
11:53 AM 44.1 °F 37.7 °F 35.1 °F 71% 29.89 in 10.0 mi SSW 12.7 mph - N/A   Overcast
12:53 PM 44.1 °F 36.5 °F 36.0 °F 73% 29.89 in 10.0 mi SW 17.3 mph - 0.00 in   Overcast
1:53 PM 42.1 °F 32.3 °F 35.1 °F 76% 29.90 in 7.0 mi WSW 24.2 mph 32.2 mph 0.00 in Rain Light Rain
2:18 PM 42.8 °F 34.8 °F 37.4 °F 81% 29.89 in 3.0 mi WSW 17.3 mph - 0.02 in   Overcast
2:53 PM 42.1 °F 34.9 °F 37.0 °F 82% 29.90 in 10.0 mi WSW 13.8 mph - 0.02 in   Overcast
3:09 PM 42.8 °F 36.2 °F 35.6 °F 76% 29.89 in 10.0 mi WSW 12.7 mph 24.2 mph 0.00 in Rain Light Rain
3:35 PM 42.8 °F 36.2 °F 35.6 °F 76% 29.89 in 10.0 mi WSW 12.7 mph 23.0 mph 0.00 in Rain Light Rain
3:53 PM 42.1 °F 34.5 °F 35.1 °F 76% 29.90 in 10.0 mi WSW 15.0 mph - 0.00 in   Overcast
4:53 PM 42.1 °F 34.2 °F 35.1 °F 76% 29.91 in 10.0 mi West 16.1 mph - 0.01 in   Overcast
5:50 PM 41.0 °F 31.9 °F 35.6 °F 81% 29.92 in 9.0 mi WSW 19.6 mph - 0.00 in Rain Light Rain
5:53 PM 39.9 °F 30.8 °F 35.1 °F 83% 29.94 in 8.0 mi West 18.4 mph 26.5 mph 0.00 in Rain Light Rain
6:37 PM 39.2 °F 28.5 °F 33.8 °F 81% 29.95 in 10.0 mi WSW 24.2 mph 33.4 mph 0.01 in Rain Light Rain
6:53 PM 39.0 °F 29.6 °F 34.0 °F 82% 29.97 in 10.0 mi WSW 18.4 mph - 0.01 in   Overcast
7:21 PM 39.2 °F 30.8 °F 33.8 °F 81% 29.95 in 10.0 mi WSW 15.0 mph 24.2 mph N/A   Overcast
8:53 PM 39.9 °F 33.4 °F 32.0 °F 73% 29.99 in 10.0 mi WSW 10.4 mph - N/A   Overcast
9:53 PM 39.9 °F 32.1 °F 30.9 °F 70% 30.00 in 10.0 mi WSW 13.8 mph - N/A   Overcast
10:53 PM 39.0 °F 31.4 °F 30.0 °F 70% 30.01 in 10.0 mi SW 12.7 mph - N/A   Overcast
11:53 PM 37.9 °F 30.9 °F 30.0 °F 73% 30.02 in 10.0 mi SW 10.4 mph - N/A   Overcast